Погода в Гомеле

Беларусь     55°17′52″N   28°46′32″E
темп.,
°C
ветер,
м/с
пор.,
м/с
влажн.,
%
обл.,
%
осадки,
мм/ч
давл.,
гПа
погр.,
м
11 мая, вт
вт1100:00+8ююв398469 0.0 1025144
03:00+7ююв377968 0.0 1026122
06:00+7юв377948 0.0 1026130
09:00+13юв46615 0.0 1026421
12:00+17юв4547100 0.0 1025961
15:00+19вюв454298 0.0 10241194
18:00+18вюв45495 0.0 10231079
21:00+12вюв36762 0.0 102284
12 мая, ср
ср1200:00+10вюв39835 0.0 1023158
03:00+9вюв3109449 0.0 1022187
06:00+10вюв399717 0.0 1022242
09:00+13юв69685 0.0 1023729
12:00+16юв68530 0.0 10221241
15:00+17юв56510 0.0 10211318
18:00+17вюв3452100 0.0 10181215
21:00+13сз326951 0.0 101536
13 мая, чт
чт1300:00+11с51392100 2.1 1010554
03:00+8в91588100 5.4 10091080
06:00+8в101791100 0.8 10071282
09:00+7юв111893100 4.9 10081366
12:00+9юв71393100 7.8 10101351
15:00+10ююв51289100 8.9 10111177
18:00+11ююв61283100 2.8 1010778
21:00+10вюв4119087 3.5 1010485
14 мая, пт
пт1400:00+10юв51489100 0.1 1010583
03:00+9юв51395100 2.1 1009580
06:00+9юв513935 0.3 1009411
09:00+11юв51289100 0.3 1009588
12:00+13юв51087100 0.3 1009699
15:00+17юв576999 0.5 10081244
18:00+16ю368419 2.3 1008431
21:00+12ю34935 2.5 100875
15 мая, сб
сб1500:00+10ююз229511 0.0 100835
03:00+10ю22957 0.0 100822
06:00+10юв33969 0.0 100966
09:00+15ююв238211 0.0 1008393
12:00+19ю2264100 0.4 10071077
15:00+18зюз227498 3.5 1007756
18:00+17з358470 2.6 1007532
21:00+13зюз369241 3.8 1007110